Dewpoint
15 16 14 15 14 19 26 20 27 21 18 15 14 9 5 5 5 1 7 9 9 9 8 6 7 6 7 9 14 14 17 18 18 24 30 23 43 46 42 43 49 52 51 48 49 52 52 54 55 61 59 62 63 63 63 62 62 62 62 63 63 64 64 62 59 60 59 59 58 61 58 57 62 55 58 58 58 57 56 56 54 57 59 58 59 60
20 17 17 18 26 29 29 29 29 25 24 17 15 10 6 5 6 1 7 8 11 17 10 12 8 8 8 12 13 16 18 15 20 21 28 23 22 25 32 43 48 50 49 45 49 50 51 49 58 63 61 61 60 62 62 62 63 63 64 63 63 63 63 63 63 66 64 61 54 60 56 55 57 50 55 55 57 57 58 59 59 60 59 62 61 63
21 13 16 20 28 27 27 29 26 25 22 19 14 9 7 5 3 7 14 12 11 17 15 9 8 9 11 10 11 17 19 23 24 25 25 28 26 25 24 45 46 48 47 47 48 50 50 52 58 59 62 62 62 62 62 62 64 64 64 63 63 62 62 62 63 62 61 61 62 64 60 61 53 53 55 52 54 56 53 63 58 62 64 63 58 59
19 11 17 11 28 25 24 24 24 23 23 16 16 11 7 5 4 9 21 15 15 16 14 10 9 16 18 17 19 21 18 24 26 23 27 29 28 28 26 40 46 48 48 48 49 49 48 49 58 58 58 61 62 62 62 62 63 63 63 63 63 61 61 62 62 60 60 61 61 61 58 58 56 53 56 56 58 58 56 55 58 59 61 59 58 56
8 16 20 24 24 22 21 20 21 17 12 19 17 9 8 3 3 3 13 20 28 25 26 17 19 16 19 15 17 21 18 23 21 18 20 23 21 33 40 39 47 49 49 49 49 49 48 50 55 55 56 59 58 59 60 62 62 63 63 63 62 60 61 61 61 61 60 60 60 59 58 55 56 57 57 57 57 57 58 57 60 61 61 60 59 59
6 23 24 17 16 18 20 17 21 24 16 15 20 18 13 14 15 11 23 18 21 19 25 20 15 13 15 16 14 14 18 19 20 18 16 20 26 24 24 38 45 50 49 50 49 49 50 53 54 54 54 56 56 58 60 62 63 63 63 63 61 60 60 60 61 60 60 59 59 59 56 56 56 57 58 56 56 59 58 55 61 56 57 57 58 56
9 23 22 19 17 17 15 13 16 23 17 15 17 17 15 12 17 16 16 18 19 16 21 27 18 15 13 11 14 15 14 17 23 22 20 20 21 20 22 25 30 50 47 49 52 50 50 53 55 54 53 53 53 56 60 62 63 62 63 62 60 59 59 59 60 59 59 58 57 57 55 55 56 56 58 58 59 57 57 59 58 59 61 57 59 60
7 8 16 17 19 17 17 14 18 16 17 11 26 15 13 14 16 18 16 18 19 21 23 21 17 16 14 15 15 14 16 17 20 22 24 19 22 22 23 23 34 32 48 53 53 52 54 53 54 54 55 56 58 57 60 62 63 62 63 62 60 59 59 59 60 58 58 57 56 56 55 55 56 57 56 58 59 60 58 60 58 57 61 59 59 60
26 23 21 18 19 15 12 12 19 16 14 14 24 16 14 15 20 14 10 14 17 20 13 16 16 15 14 16 15 14 16 20 21 24 22 19 17 19 23 20 21 33 36 48 51 53 54 53 55 59 58 58 58 58 61 61 62 62 63 62 60 59 59 60 60 57 57 57 56 56 56 56 56 55 56 55 55 58 59 60 61 59 56 57 58 56
13 12 12 17 14 13 11 10 11 15 14 17 11 14 17 17 16 17 16 13 19 18 17 17 21 13 15 19 15 13 14 18 21 23 21 21 23 22 23 28 33 30 34 35 37 45 51 54 57 58 59 59 59 57 60 61 62 61 63 61 60 58 58 60 59 57 57 58 56 57 58 58 55 55 54 54 56 58 59 58 59 59 59 56 59 57
14 21 20 11 11 11 12 12 13 14 15 17 19 18 17 15 18 16 19 19 22 17 17 19 19 15 12 16 15 17 20 21 25 23 25 25 25 24 32 30 29 25 27 27 30 40 48 51 54 57 57 58 58 59 61 62 61 61 62 61 59 58 58 59 59 57 57 57 55 56 57 57 54 55 56 55 56 57 58 57 58 59 57 58 57 58
3 10 11 9 8 7 6 6 7 11 12 12 12 15 14 14 18 20 18 19 18 15 17 15 17 19 12 14 23 22 21 20 24 21 24 26 24 26 33 26 26 28 30 29 31 35 48 53 52 56 58 58 57 59 60 61 62 60 61 61 59 59 59 59 58 57 57 56 55 57 57 57 55 55 55 54 55 55 56 57 57 59 57 56 57 57
12 8 8 7 12 4 4 3 3 5 8 8 10 10 16 13 17 17 20 16 16 16 18 16 16 12 12 18 20 17 19 19 21 19 23 24 25 30 27 29 30 30 30 33 38 45 47 49 53 56 53 55 59 59 60 62 62 60 61 61 59 58 59 59 58 57 57 57 55 55 56 58 56 55 56 55 56 55 57 57 57 56 56 56 55 58
13 10 9 6 6 10 3 3 2 -1 4 7 8 13 12 13 15 16 14 19 20 20 20 22 17 14 14 15 17 16 20 20 21 24 25 25 32 32 26 29 31 36 35 40 43 46 49 50 49 54 57 54 58 59 58 60 62 60 60 61 58 58 59 58 57 57 57 57 56 57 57 58 56 57 58 56 55 56 57 57 57 57 57 55 56 56
13 11 10 10 10 7 6 2 2 7 7 7 10 9 15 15 17 17 14 14 14 14 18 14 17 14 14 14 19 21 18 18 19 18 27 32 32 34 27 29 33 39 44 47 47 47 50 53 55 57 55 62 58 59 59 60 60 60 59 61 59 58 59 58 57 57 57 57 57 57 57 58 57 57 58 57 57 56 58 57 57 58 58 57 55 56
7 9 8 7 8 6 4 4 3 2 4 7 9 11 13 18 17 13 16 16 15 14 17 18 17 16 26 23 20 22 19 17 17 21 27 28 27 31 33 35 37 41 45 48 49 49 50 52 54 56 57 58 58 58 61 59 60 60 59 59 58 58 58 58 57 57 57 57 57 57 57 57 57 56 56 57 56 57 60 58 57 58 58 57 57 56
7 7 3 5 6 9 9 7 4 5 10 13 8 13 13 16 14 17 19 20 22 16 13 17 21 18 26 19 21 20 18 15 16 20 21 24 29 35 36 38 39 42 45 48 48 48 50 50 52 53 55 57 57 58 60 61 59 59 59 59 59 58 58 58 56 57 57 57 57 57 58 56 58 56 56 56 58 57 59 60 58 58 59 59 58 56
11 11 6 7 7 8 7 4 4 4 4 3 5 6 9 10 16 18 12 17 17 15 17 17 17 11 8 15 18 17 17 15 15 18 21 31 34 35 37 40 41 43 45 47 48 49 49 49 49 50 52 52 54 57 58 58 60 61 60 58 57 57 57 57 56 56 57 57 58 57 58 58 58 57 57 57 58 57 56 60 59 59 59 60 58 56
15 12 10 7 3 5 3 7 8 7 4 2 3 3 4 10 12 14 16 11 11 12 11 16 8 9 7 14 15 17 17 19 17 17 22 26 29 35 37 39 42 44 46 46 48 48 48 49 50 52 53 50 52 56 57 54 58 61 60 58 57 56 58 59 56 56 56 58 58 58 58 59 59 60 59 58 59 58 56 57 58 59 58 60 59 57
17 13 13 9 5 1 4 8 10 9 4 2 3 3 2 8 14 11 16 12 14 12 14 16 8 9 13 24 22 19 19 20 18 18 21 24 29 36 39 40 41 44 45 45 46 47 49 50 51 51 53 52 52 53 56 56 56 56 57 57 56 57 56 58 59 58 57 56 58 59 59 59 57 59 61 62 59 60 58 57 58 58 58 58 57 58
15 25 16 14 9 2 4 10 9 7 9 10 6 7 8 19 14 7 19 8 13 12 12 11 10 19 30 20 20 22 21 29 28 23 25 27 33 36 39 42 43 43 45 47 47 48 48 49 50 50 52 52 52 52 54 55 54 55 55 54 53 57 58 58 59 60 58 59 60 60 61 61 61 61 61 61 61 60 60 61 60 60 59 56 57 58
15 16 14 12 8 7 6 6 5 7 9 14 14 18 29 17 15 15 14 10 18 10 12 9 11 18 27 29 25 26 27 28 26 20 27 32 35 39 42 43 43 42 43 45 46 47 48 48 48 48 50 51 51 51 52 52 52 53 55 52 53 52 53 55 54 55 55 58 60 59 59 62 61 60 60 61 61 59 59 61 61 61 62 60 59 56
28 26 21 16 11 8 5 5 6 0 6 9 10 10 10 14 15 13 12 14 14 13 15 19 19 23 30 32 25 25 25 22 28 24 28 34 38 39 40 40 41 42 41 42 43 44 45 47 48 48 49 50 51 51 51 51 51 51 52 54 54 54 54 56 57 56 56 57 58 59 59 60 59 59 60 60 59 60 60 61 61 60 60 59 59 59
25 21 14 11 11 9 5 -0 -2 -2 2 4 5 8 8 10 13 14 14 14 14 15 11 12 15 19 32 29 29 28 26 26 29 26 31 36 38 38 39 39 39 39 40 38 40 42 41 41 44 44 45 45 48 50 49 50 50 50 50 51 51 52 54 56 56 56 57 58 58 58 59 59 58 59 59 59 59 58 60 59 60 61 61 60 59 57
21 21 15 10 9 7 7 3 -3 -4 -5 6 10 16 12 11 10 14 13 20 16 15 14 15 13 17 30 31 25 23 22 22 22 25 33 34 37 37 36 37 38 39 38 37 37 38 39 37 37 36 38 40 41 43 46 45 46 47 49 49 50 52 52 53 55 56 57 60 59 59 59 58 58 59 59 60 59 60 61 61 59 60 58 59 60 59
21 24 20 13 12 11 10 8 6 16 7 13 13 12 13 11 18 16 11 14 15 19 17 16 16 27 28 26 23 23 23 22 22 24 31 33 34 34 35 37 38 37 38 36 37 39 40 34 31 33 36 33 35 36 38 42 42 42 43 45 49 47 50 50 52 55 57 57 59 60 60 60 59 58 59 60 59 59 60 61 59 58 61 59 58 57
23 24 21 19 15 11 12 8 14 11 13 11 12 11 12 13 13 20 17 16 15 19 18 19 20 25 24 23 23 23 26 24 25 28 29 36 33 36 37 36 37 38 36 35 38 38 38 39 40 34 36 33 35 35 36 36 38 39 43 43 42 44 45 48 49 49 49 50 53 57 58 61 61 61 59 59 59 59 59 60 61 59 59 60 58 58
20 21 19 21 18 13 11 10 10 11 9 8 9 12 9 13 18 19 17 16 19 16 14 20 23 23 21 19 19 26 25 25 26 27 28 32 35 34 35 36 39 35 36 37 38 37 37 38 39 42 41 39 33 32 34 35 35 37 40 39 39 41 45 45 48 45 47 48 49 50 51 53 50 50 51 54 57 59 58 59 59 58 58 59 60 59
20 16 17 18 13 10 10 9 10 10 10 10 9 12 14 14 17 19 23 19 22 17 13 21 23 23 18 19 21 22 24 26 26 32 40 35 33 32 34 34 33 33 35 35 36 38 38 38 40 41 40 37 37 37 36 36 37 42 40 39 39 42 43 45 47 44 44 47 50 51 54 53 53 54 53 51 50 53 53 58 59 58 58 58 58 58
23 18 19 16 15 13 11 11 10 9 9 9 10 9 8 14 17 18 19 18 15 20 21 21 23 26 21 20 21 22 27 26 24 27 35 28 32 31 32 35 32 31 32 32 35 36 38 38 38 38 40 41 34 32 31 34 35 36 37 39 37 39 40 44 49 46 44 42 46 48 47 48 52 50 50 50 50 51 52 51 55 59 57 57 57 57
22 18 23 21 19 17 15 13 11 10 12 11 7 7 10 13 12 15 19 20 24 22 22 23 26 26 23 24 23 25 28 25 26 22 24 28 26 28 30 33 34 29 26 28 32 34 36 38 38 37 37 38 37 38 36 39 33 34 34 35 34 34 40 33 42 41 47 40 45 48 48 48 45 47 47 49 49 51 52 52 54 56 58 58 57 57
25 20 21 21 19 19 14 12 11 11 10 8 11 16 15 16 20 20 20 23 23 24 23 24 23 22 20 22 23 23 25 23 23 22 25 27 23 26 27 27 29 29 28 25 30 32 35 35 36 36 37 37 37 35 34 36 30 32 33 32 29 29 30 41 44 43 44 41 48 41 42 45 46 47 48 49 46 48 49 52 54 55 56 56 56 57
22 21 20 19 17 17 13 13 11 15 15 14 20 22 19 18 16 21 19 20 24 25 23 20 18 21 28 28 25 23 27 28 26 25 29 30 29 23 22 25 28 30 30 30 28 31 32 32 34 38 36 34 32 31 31 27 30 36 34 36 34 31 44 37 37 32 43 42 42 47 48 43 40 42 47 47 47 49 49 49 50 50 53 54 55 56
21 22 17 18 16 16 15 18 21 18 14 14 22 24 21 21 20 22 24 24 25 25 21 24 20 24 26 25 25 25 25 28 30 30 30 32 31 30 28 27 26 31 33 32 31 33 33 33 36 37 37 38 36 35 36 34 34 37 46 38 32 38 32 30 33 41 39 43 45 46 48 46 45 45 46 47 48 49 46 46 46 51 53 54 54 54
20 19 16 17 17 16 19 20 15 14 15 20 20 18 19 22 22 20 21 20 21 20 21 23 24 25 24 23 24 26 27 27 28 28 28 28 31 29 28 28 30 31 33 35 38 37 36 39 39 40 38 37 36 41 38 31 35 37 32 38 34 34 38 33 31 43 44 44 42 47 46 40 44 46 45 46 46 47 47 47 49 48 48 49 53 53
21 15 17 18 16 17 16 15 13 13 18 21 19 28 29 20 22 24 22 20 21 25 28 25 25 25 24 22 22 22 23 24 26 25 26 26 30 30 29 31 32 33 35 46 39 40 38 35 36 37 37 38 35 30 27 36 35 34 33 33 34 38 37 33 33 33 41 44 46 41 44 44 47 48 47 46 47 45 44 47 48 48 48 49 51 52
17 17 19 17 22 16 17 15 15 18 17 18 22 31 29 28 30 27 24 25 27 24 23 24 23 22 22 22 22 22 26 25 25 26 25 25 29 29 28 27 30 32 32 34 34 37 38 38 34 36 38 36 33 32 34 32 33 36 34 32 30 30 31 41 38 30 45 42 38 39 43 45 46 47 47 46 46 44 46 47 48 48 48 46 48 50
18 21 21 17 18 17 14 13 13 13 13 17 28 29 30 31 31 30 25 22 25 25 25 25 24 25 27 26 26 26 27 23 22 26 28 28 26 28 24 26 27 28 27 29 32 33 37 39 33 31 33 36 35 33 31 29 34 35 34 34 32 30 31 30 33 32 33 36 42 44 43 41 41 44 46 46 44 45 47 47 46 45 48 46 48 49
14 16 20 17 17 16 16 14 13 13 16 26 26 26 28 27 30 28 22 15 26 25 24 24 23 24 24 24 24 26 25 22 23 30 27 28 28 27 27 24 23 24 25 26 30 30 30 41 36 29 30 32 29 28 32 32 34 32 33 34 32 33 32 35 33 36 34 36 34 33 39 43 44 45 46 44 44 48 47 46 45 45 46 44 45 47
17 15 15 14 17 17 16 14 13 17 16 30 30 27 24 25 29 25 17 16 26 26 24 24 23 24 25 25 25 24 23 23 24 27 27 27 26 28 27 27 28 26 24 26 27 29 29 33 29 43 36 31 31 33 32 30 30 34 34 33 33 34 33 35 36 33 36 36 39 40 39 46 44 44 43 41 45 48 48 48 46 46 45 45 42 44
17 20 16 14 14 16 20 15 15 17 29 29 26 26 24 28 26 16 13 22 25 24 23 24 23 23 23 23 23 22 23 24 24 25 26 26 25 26 28 31 29 26 25 25 25 32 25 25 27 26 29 28 29 30 31 30 32 33 32 34 35 34 34 36 36 36 36 37 36 35 34 35 39 44 45 45 46 47 47 48 47 47 47 47 46 47
20 22 20 20 16 14 16 16 17 21 31 31 25 25 26 24 17 15 22 25 24 22 22 22 22 22 24 23 23 23 23 23 25 25 25 25 26 27 25 25 26 26 27 28 32 31 28 26 30 29 27 27 28 29 30 30 32 33 32 33 34 35 35 35 34 36 36 36 34 35 35 37 39 43 45 46 48 49 48 48 47 47 47 46 46 48
18 20 18 18 19 19 18 16 14 13 29 29 25 20 23 20 21 21 22 22 22 21 20 20 21 21 21 21 22 23 22 23 23 23 24 25 25 26 26 26 28 26 26 28 28 26 27 26 27 26 28 27 27 27 28 30 31 30 32 32 35 36 35 35 36 34 34 34 35 37 38 41 43 43 44 44 46 46 47 48 47 47 47 48 48 47
17 16 15 15 18 15 15 15 17 23 23 26 22 18 19 20 21 22 21 19 19 19 18 18 18 19 20 20 20 21 21 21 22 21 21 21 22 24 25 26 26 25 25 25 23 24 24 22 23 26 26 26 26 27 27 28 28 29 31 31 32 35 37 37 36 35 35 36 36 36 35 33 36 40 42 43 44 45 46 46 47 47 47 46 47 46
13 14 19 13 19 18 17 17 20 22 20 18 21 18 20 21 21 20 20 17 16 15 17 16 17 19 19 20 20 20 18 20 20 20 20 21 20 20 20 21 22 23 24 24 22 24 24 21 24 24 24 25 26 26 27 28 29 29 32 34 34 32 32 34 35 35 35 35 35 36 34 37 37 38 40 43 43 43 43 43 46 46 48 48 47 46
20 19 19 16 15 17 17 17 19 15 15 15 15 18 18 19 17 17 17 18 20 20 19 18 19 19 20 21 18 18 18 18 19 19 19 17 18 19 21 17 17 19 19 18 20 21 20 20 23 23 24 24 24 26 29 29 27 28 30 30 32 31 32 33 34 35 34 32 33 35 34 35 35 38 41 44 42 41 42 46 46 46 47 48 47 46
20 19 17 14 15 14 12 14 13 14 15 15 14 15 16 16 16 22 22 21 21 22 21 20 20 20 20 19 19 20 22 24 24 21 20 20 19 22 25 25 21 19 19 19 20 24 23 22 22 22 23 26 28 29 30 30 31 31 31 32 32 32 33 33 35 36 37 37 35 36 36 38 36 36 38 44 44 45 44 45 47 47 47 47 47 46
17 18 15 15 14 14 15 14 14 13 13 14 14 14 14 18 21 21 21 22 23 24 23 23 22 22 23 23 24 25 25 25 25 26 26 26 24 22 24 25 23 23 22 22 22 23 22 23 22 24 26 28 29 29 30 30 30 30 31 31 29 30 32 35 35 35 34 34 35 34 33 34 33 40 43 43 41 44 46 47 48 47 46 45 45 45
14 18 13 13 11 11 12 11 11 16 16 15 16 17 19 21 22 23 22 23 24 23 23 24 26 26 26 27 27 27 27 27 28 28 28 26 27 27 26 27 28 27 25 24 26 28 26 26 26 27 28 29 30 31 31 31 31 31 31 32 32 32 30 32 34 35 34 34 34 34 34 34 41 43 42 42 42 39 38 43 46 46 47 47 46 45
14 12 12 14 12 11 9 13 18 16 16 16 18 20 22 23 23 23 25 24 24 25 26 27 28 29 29 30 30 29 28 28 29 29 28 27 27 27 28 28 29 29 27 26 27 28 27 28 28 29 29 29 31 32 32 33 33 33 32 31 31 32 33 33 34 35 34 32 32 31 32 37 36 37 44 45 41 37 35 33 33 35 38 38 35 36
13 18 15 13 14 14 17 18 22 23 21 21 25 25 25 24 25 25 26 26 27 27 27 28 27 26 27 27 27 28 28 28 27 27 27 27 27 28 29 29 29 30 31 34 33 31 31 31 34 34 33 33 33 32 33 33 33 33 33 33 33 33 33 32 33 32 33 34 35 34 35 37 37 43 45 43 40 37 35 33 32 33 33 34 34 33